Wind_Speed
5 4 3 3 3 3 3 5 8 10 10 12 15 15 15 17 20 19 14 12 15 15 14 15 15 15 15 14 15 14 14 14 13 13 13 13 13 12 11 10 9 9 8 8 7 6 6 5 4 4 3 3 3 3 3 4 4 5 5 6 6 7 7 9 9 10 11 11 12 13 13 14 14 14 15 15 16 17 17 18 19 19 19 19 18
5 3 1 2 3 4 3 4 6 8 8 11 14 14 16 19 19 18 17 16 17 18 17 17 16 15 15 15 15 15 14 14 14 14 13 13 12 12 11 10 9 9 8 7 7 7 7 6 6 6 6 6 6 7 7 6 7 8 8 8 8 8 9 10 11 11 11 11 12 13 13 14 14 15 16 17 18 18 18 19 19 20 20 21 21
4 2 2 4 5 7 7 5 5 6 7 9 11 13 17 22 21 20 20 20 21 20 19 19 18 18 17 17 16 15 15 15 14 14 14 14 13 13 12 11 10 10 9 8 8 8 8 7 8 8 8 8 8 8 8 8 9 9 10 10 10 9 9 10 10 10 11 11 12 13 14 15 16 17 18 19 20 20 20 20 21 21 21 22 22
4 1 2 5 6 8 8 8 7 5 7 8 9 13 21 25 24 23 23 22 23 22 21 20 20 19 19 19 18 17 16 16 16 16 15 15 14 13 13 12 11 10 9 8 8 8 8 8 8 9 9 10 10 10 9 9 9 10 10 10 10 9 9 9 10 12 12 13 14 15 16 17 18 19 20 21 21 21 21 21 21 22 23 23 23
3 2 4 6 7 8 9 10 8 5 8 9 10 17 25 27 26 25 25 25 24 24 23 23 22 21 21 21 20 20 19 19 19 19 17 17 16 15 14 13 13 12 11 10 9 8 8 8 9 9 10 11 11 11 11 10 10 11 11 11 11 10 10 11 12 14 15 16 17 18 20 22 22 22 23 23 23 22 22 21 22 23 23 24 24
3 3 5 7 8 9 9 11 10 7 9 11 13 18 24 26 26 27 27 27 26 26 25 25 24 23 23 22 22 22 21 22 22 22 20 20 19 18 16 15 15 14 12 11 10 9 9 8 8 9 10 10 11 12 12 12 12 12 12 12 13 13 12 13 14 16 18 20 22 24 24 25 26 25 25 24 24 24 24 24 25 25 24 24 25
3 4 5 6 7 8 9 11 11 9 10 12 15 19 24 26 27 28 29 29 28 28 28 27 27 26 25 24 24 24 23 23 24 24 23 23 22 21 19 17 16 15 13 12 11 11 10 10 9 9 10 11 11 12 12 13 13 13 14 14 15 17 17 18 19 20 22 23 25 26 27 27 27 27 26 26 26 26 25 26 27 28 27 27 27
4 4 4 5 6 7 9 11 12 12 11 13 16 19 23 25 27 30 31 31 31 30 30 29 29 29 28 27 26 25 24 25 26 27 27 26 25 24 22 20 18 16 14 12 12 12 11 11 10 10 10 11 11 12 12 14 15 16 17 18 19 21 21 22 23 23 24 25 25 27 29 29 28 29 28 27 27 26 26 26 26 27 28 28 29
7 7 6 6 7 7 8 10 12 13 13 14 17 19 22 25 28 31 33 33 33 33 32 32 32 31 30 29 28 26 26 26 27 29 30 30 30 28 25 23 21 20 17 15 13 12 12 12 12 11 11 11 11 12 13 15 16 17 19 20 21 22 22 24 25 25 26 26 25 26 27 26 26 30 30 27 25 25 26 26 26 27 27 27 29
9 9 9 9 9 9 9 10 12 13 14 16 18 20 22 26 29 31 33 35 36 36 36 35 35 34 33 31 30 29 28 29 29 30 32 34 34 31 29 28 27 24 21 16 14 13 13 14 13 12 11 11 12 13 14 15 16 18 20 20 21 22 24 25 26 26 27 26 24 25 27 27 28 31 32 30 27 25 24 25 26 27 28 28 28
11 11 11 11 11 11 12 12 12 13 14 16 18 20 22 24 27 28 30 31 34 37 39 40 39 38 36 35 33 33 33 33 33 34 35 36 34 32 32 33 33 30 25 18 15 15 15 15 14 13 12 13 13 14 15 16 17 18 20 21 22 23 25 25 26 26 27 27 27 28 30 30 31 32 32 32 30 27 25 27 28 29 30 30 31
11 11 12 13 13 13 14 14 15 15 15 16 18 19 20 21 23 25 26 28 31 36 40 43 43 42 41 39 37 37 37 36 36 37 39 39 38 36 36 36 34 34 30 23 18 16 16 15 15 15 15 15 15 15 16 17 18 19 20 22 23 24 25 26 27 27 27 28 29 31 31 30 31 32 33 33 32 31 30 30 32 33 33 33 34
14 14 14 14 15 15 16 16 16 17 17 17 17 18 18 18 20 22 23 26 30 33 35 40 46 48 45 43 42 41 40 38 37 39 41 42 42 41 40 36 32 32 29 24 20 17 16 16 15 15 15 15 15 16 17 17 18 19 21 22 23 23 24 26 27 27 28 28 30 32 32 31 32 34 35 34 35 35 33 33 34 36 36 36 36
18 18 18 18 19 19 19 18 18 18 18 18 18 19 18 18 18 20 21 23 26 29 31 34 42 50 50 47 45 45 41 38 37 38 39 38 37 36 33 29 27 26 24 21 19 18 17 17 16 16 16 16 17 18 19 20 20 21 22 23 23 24 24 25 27 28 29 31 32 33 34 34 34 36 36 36 36 36 35 35 37 38 39 39 39
21 21 21 22 21 21 21 20 20 20 21 21 21 21 21 21 20 20 21 22 23 26 28 30 34 43 51 51 47 45 41 37 35 34 33 31 29 28 26 23 22 22 21 19 18 17 17 16 17 17 18 19 20 20 22 22 23 23 24 24 25 26 26 27 28 29 31 32 33 34 35 35 35 37 37 37 38 38 38 38 39 40 41 41 42
22 22 23 23 22 22 22 22 23 23 23 23 23 23 24 24 23 23 24 25 24 24 25 27 27 31 41 46 44 41 37 34 32 31 28 26 25 24 24 23 22 21 20 19 18 18 17 17 18 19 20 21 22 23 23 24 25 26 26 27 27 28 28 28 29 31 32 33 34 35 36 36 37 37 38 38 39 40 41 41 42 43 43 43 43
23 24 25 25 25 25 25 26 27 28 27 27 26 26 26 26 26 27 27 26 25 24 24 25 26 26 31 36 38 37 34 32 31 30 28 25 24 24 25 24 23 22 21 20 19 19 19 19 20 21 22 23 24 25 26 27 28 29 29 29 30 29 29 30 31 32 33 34 35 36 37 38 38 39 40 40 40 41 42 43 44 45 46 46 46
26 26 27 28 28 28 28 29 30 31 31 31 30 29 28 26 26 28 28 25 24 24 24 24 26 28 30 33 35 35 32 31 30 31 29 26 24 24 25 25 24 23 21 21 20 20 20 20 21 22 23 24 26 27 28 29 30 30 30 31 31 32 32 32 33 34 35 36 37 38 39 40 41 42 42 42 43 44 44 45 45 46 47 47 47
29 29 29 29 30 30 31 31 32 33 33 32 32 30 29 27 25 26 26 25 23 23 25 25 25 28 32 35 36 34 30 30 32 33 32 29 25 25 25 25 24 23 22 22 21 21 21 21 22 23 24 26 28 29 30 30 30 30 31 32 33 33 33 34 36 36 37 38 39 40 41 43 43 44 45 45 45 45 46 46 47 47 47 47 47
32 32 31 31 32 32 32 32 32 32 31 31 31 30 29 28 26 26 26 25 24 24 25 26 26 28 32 36 38 36 32 31 33 36 35 31 27 26 27 26 24 24 23 23 22 22 22 22 23 25 26 28 29 30 30 30 30 30 31 32 34 34 35 36 37 38 39 40 41 42 44 45 46 46 47 48 48 48 48 47 46 46 46 45 45
33 33 32 31 31 31 31 31 30 30 29 29 30 29 29 29 28 28 28 27 25 24 26 28 29 28 28 30 33 35 35 35 37 38 37 33 29 28 27 27 26 25 24 24 23 23 23 24 25 26 28 30 30 30 29 29 30 31 32 33 34 35 36 37 37 38 40 41 43 44 45 46 47 48 49 49 49 48 47 46 44 43 42 42 42
34 34 34 32 31 31 32 31 30 30 29 29 30 30 30 30 29 29 29 28 27 26 26 29 30 29 27 27 30 36 37 36 36 35 34 32 30 28 27 28 27 26 25 25 24 24 24 25 27 28 29 30 30 29 30 30 31 32 33 34 34 35 36 38 39 40 41 43 44 45 46 47 47 47 47 47 46 45 43 42 41 40 39 39 40
40 40 39 38 37 37 37 36 35 34 33 32 32 32 32 32 31 30 29 29 29 28 27 28 28 28 28 30 34 37 35 32 32 30 27 27 28 28 29 30 29 28 27 25 24 25 25 27 28 29 29 29 29 30 31 32 33 33 33 34 35 35 36 38 40 42 43 44 45 45 45 45 45 44 43 42 41 39 39 39 39 39 39 40 41
47 46 45 45 43 42 42 41 41 40 38 37 37 36 35 34 33 33 32 32 32 31 28 28 28 28 27 31 35 35 30 27 27 26 24 26 28 29 30 31 30 29 28 26 25 27 27 28 29 29 29 30 31 32 33 34 35 35 35 35 35 36 38 39 41 42 43 44 44 43 43 42 41 40 38 37 36 36 37 38 39 40 41 41 42
51 51 51 50 49 47 46 46 46 45 44 43 41 40 39 38 37 37 36 34 33 32 30 29 29 30 30 31 31 30 25 19 20 24 26 28 30 31 32 32 31 30 28 27 28 28 28 28 29 29 30 32 33 35 36 36 37 36 36 36 36 37 38 40 41 41 42 42 42 41 40 38 37 36 35 35 36 37 38 39 40 41 42 43 44
54 54 54 53 53 52 51 51 50 50 48 47 45 43 42 41 40 40 39 37 36 34 33 32 31 31 31 31 31 31 29 26 25 28 30 31 32 33 34 33 32 31 29 29 29 29 28 28 29 30 32 33 35 36 36 36 36 36 35 35 36 37 38 39 39 39 39 39 39 37 36 35 34 34 35 35 36 37 39 40 41 42 43 44 45
51 51 51 52 52 52 52 52 52 52 52 50 48 46 44 43 43 41 40 39 38 37 37 36 34 33 33 32 32 31 30 29 30 32 33 35 36 36 36 35 34 32 31 31 30 28 28 28 29 31 32 33 33 33 33 33 34 34 34 35 36 37 38 37 37 37 37 36 35 34 33 33 33 34 35 36 36 37 39 41 42 43 44 44 44
47 48 48 48 48 49 48 48 49 50 52 53 52 50 48 47 46 44 43 42 41 41 41 40 38 37 36 34 32 30 30 31 31 33 34 36 38 39 38 38 37 35 33 32 29 28 28 29 30 31 31 31 31 31 31 32 33 34 35 36 36 36 36 35 35 34 33 32 32 31 31 32 32 34 35 36 37 38 39 41 42 43 43 43 42
43 44 45 45 47 48 48 47 47 46 48 50 52 53 53 52 50 48 47 46 45 44 43 43 42 41 40 36 33 32 33 33 33 33 35 37 39 40 40 40 39 37 35 32 29 28 29 30 30 30 30 29 30 30 31 32 32 33 33 34 34 34 33 32 31 30 30 30 30 30 30 31 31 33 34 35 36 37 39 40 41 41 40 39 36
35 35 36 37 40 43 45 47 48 47 46 47 48 51 53 53 52 52 51 50 47 46 47 47 46 44 42 39 36 35 35 35 36 37 39 40 41 42 42 42 41 39 36 32 29 29 30 30 30 29 28 28 29 29 30 30 31 31 31 31 31 30 29 28 27 28 28 28 28 29 29 30 31 32 33 34 35 36 37 38 37 36 34 31 28
32 32 31 31 32 34 37 41 45 47 47 46 46 48 50 51 51 52 54 53 51 49 49 48 47 46 45 42 39 39 39 40 41 41 41 42 44 44 43 43 42 40 36 32 30 30 30 30 28 27 27 27 27 27 28 29 29 30 29 29 27 26 25 25 25 26 26 27 27 28 29 30 31 31 32 32 33 33 33 33 31 29 26 24 21
30 31 32 31 30 30 31 34 38 44 47 46 45 45 46 47 47 47 50 53 54 52 49 46 44 45 45 44 43 44 44 45 47 47 46 45 44 43 43 43 42 39 36 32 30 29 28 27 26 25 25 25 25 26 27 28 28 28 27 25 24 23 23 23 24 25 25 26 26 27 28 29 30 29 29 30 30 30 29 27 25 22 20 19 18
26 28 30 31 30 29 29 29 32 37 42 45 45 44 44 45 44 43 45 49 53 54 52 50 46 43 41 41 43 44 40 37 39 44 46 45 42 42 43 43 40 37 33 30 27 26 26 25 23 23 23 23 23 24 26 27 27 25 22 21 21 22 22 22 23 24 25 25 26 27 27 28 28 27 27 29 29 28 25 22 20 18 17 16 16
25 26 27 28 29 28 27 27 27 30 35 41 43 42 41 42 42 42 41 42 46 50 52 52 51 48 44 42 41 40 37 34 33 34 38 39 37 34 34 35 33 30 27 25 24 24 24 23 22 22 22 22 22 24 25 25 23 21 20 20 20 21 21 21 22 23 24 25 25 26 26 26 26 26 27 28 28 26 22 20 18 17 16 15 15
27 28 28 27 27 27 26 25 25 25 29 36 41 41 39 37 38 40 40 38 39 43 46 49 51 51 49 46 43 40 39 38 36 33 31 30 28 25 25 25 25 24 23 23 24 24 23 22 21 21 21 21 22 23 23 22 20 19 19 19 19 19 19 20 21 22 23 24 24 25 25 25 24 25 26 27 27 25 22 19 18 17 16 15 15
30 30 28 27 26 25 24 23 23 23 25 31 36 39 38 34 33 35 38 38 36 37 39 42 44 46 47 46 43 40 36 33 32 33 31 28 24 23 23 22 22 21 22 23 23 23 22 20 20 20 20 21 22 22 20 19 18 18 18 18 18 18 18 19 20 21 22 22 23 24 24 23 24 24 25 26 26 25 22 19 17 16 16 16 15
28 27 26 24 24 24 22 21 21 22 23 26 32 36 37 35 31 29 31 34 35 34 34 35 36 38 41 41 40 39 36 32 30 29 29 26 23 22 23 23 23 22 22 22 22 20 19 18 18 19 19 20 21 20 18 17 17 17 16 16 16 17 17 18 19 20 20 22 22 22 22 23 23 23 24 25 25 24 22 19 17 16 16 17 17
22 22 22 22 21 20 18 17 17 19 21 23 27 32 35 32 29 27 28 30 31 31 32 33 31 30 32 34 35 34 34 35 35 33 29 27 26 25 26 25 23 22 21 20 19 18 17 16 17 19 20 20 20 18 17 16 16 16 16 15 15 15 15 16 17 18 19 21 21 22 22 23 22 22 23 24 24 24 22 20 18 16 16 16 17
20 21 20 18 15 13 13 13 15 17 18 20 23 29 32 30 27 25 27 28 29 31 32 32 29 25 24 25 28 30 30 31 36 38 35 32 30 29 26 23 21 20 19 18 17 16 16 16 18 19 20 19 18 17 16 16 15 15 15 14 14 13 14 15 16 17 19 20 21 22 23 23 23 23 23 24 24 24 23 21 19 17 16 15 16
20 18 14 11 10 9 9 11 13 13 15 16 19 24 29 30 27 25 25 26 28 30 31 31 30 26 21 20 23 26 28 30 34 36 36 35 32 27 23 20 19 18 18 17 16 16 16 17 18 18 18 17 16 16 15 15 14 14 14 13 12 12 13 14 15 17 18 19 20 22 23 24 23 23 23 24 24 24 23 21 19 18 17 16 16
19 17 13 9 9 9 10 12 12 10 11 13 16 20 26 28 27 25 25 25 26 28 30 31 30 27 24 22 21 21 25 33 38 35 30 28 25 22 19 19 19 18 18 17 16 16 17 17 17 16 16 16 15 15 15 14 14 13 12 11 11 11 12 13 14 16 17 18 19 21 22 23 23 23 23 23 23 22 22 21 20 19 18 17 17
17 16 13 10 9 9 9 9 8 7 8 10 12 17 23 25 25 24 25 25 25 27 28 29 28 26 27 27 23 18 19 28 32 27 22 20 19 18 18 18 18 18 17 16 16 16 17 16 16 15 15 15 15 15 15 14 13 12 11 10 10 10 11 12 13 14 15 16 18 19 21 22 22 22 22 22 22 22 21 20 20 20 19 18 18
17 16 14 13 12 10 8 7 5 4 5 7 10 15 19 22 22 22 24 25 25 25 26 25 25 25 25 24 22 20 19 22 21 18 18 19 17 16 16 15 15 16 15 15 16 16 16 16 16 16 15 15 15 15 14 12 11 11 11 10 9 9 10 11 12 13 14 15 16 18 19 20 21 21 22 22 23 22 21 20 20 20 20 19 18
18 17 15 14 13 11 9 6 4 3 3 5 8 12 16 20 21 21 22 23 24 23 22 20 20 21 21 20 19 19 20 20 18 17 18 18 17 16 15 14 14 15 15 15 15 15 16 17 16 15 14 15 15 14 13 11 11 11 10 8 8 8 9 10 10 11 12 13 15 16 18 19 19 20 21 22 22 22 22 22 21 21 21 20 19
17 17 16 14 12 11 9 7 5 3 1 2 6 9 13 17 18 19 20 21 21 20 19 18 18 18 18 18 20 20 19 17 15 16 17 17 18 17 14 12 14 15 15 15 15 16 16 16 15 14 14 15 15 13 11 10 11 11 9 7 7 8 8 8 9 10 10 12 13 15 16 17 19 20 21 21 22 23 23 23 23 22 22 21 20
16 15 15 14 12 10 9 8 7 6 6 6 7 8 10 13 14 15 17 18 18 18 18 18 18 17 17 19 23 23 18 14 14 15 17 18 17 14 12 12 14 15 14 14 15 15 15 14 13 14 15 15 13 12 11 11 11 10 8 7 7 8 7 8 8 9 10 11 12 14 15 16 18 19 20 20 21 23 23 24 24 23 23 23 21
19 16 15 14 12 10 9 9 9 9 9 10 10 10 10 11 12 13 14 15 16 17 17 17 17 17 17 20 23 20 15 13 14 15 15 15 14 13 13 14 14 13 14 15 15 14 12 12 13 14 14 13 12 11 11 11 11 9 8 8 8 7 7 8 8 8 9 11 12 13 14 16 17 18 19 20 21 22 23 24 24 24 23 24 23
22 19 17 15 13 11 10 10 10 11 11 12 12 11 11 11 12 13 14 15 16 17 17 18 18 18 18 19 18 16 14 13 13 11 11 12 14 15 15 15 14 14 14 14 13 11 11 12 13 13 13 12 11 11 11 11 10 9 8 8 7 7 7 8 8 8 9 11 12 13 14 15 16 17 19 20 21 22 23 24 25 24 24 24 23
22 21 19 16 14 12 11 10 10 11 11 12 11 11 10 10 9 10 13 16 17 17 18 18 19 19 18 16 12 11 12 13 13 13 14 15 16 15 15 14 14 14 13 12 11 10 11 12 12 12 11 11 11 11 11 10 9 8 7 7 7 7 7 8 8 9 9 10 12 13 14 15 17 18 19 19 20 21 22 23 24 24 24 24 23
20 20 19 17 15 13 12 12 11 11 12 12 11 10 10 9 7 6 11 16 17 16 17 17 17 17 17 16 14 15 17 18 17 16 15 14 13 12 12 13 13 13 11 11 10 10 11 11 12 11 11 11 11 10 9 8 7 7 6 6 6 7 7 8 8 9 10 10 11 13 14 16 17 17 18 19 20 21 21 22 23 24 24 23 23
18 18 18 17 16 15 13 12 12 11 12 12 11 10 9 9 10 11 15 18 17 17 17 18 17 16 17 18 17 17 17 16 14 13 12 12 12 12 11 12 12 11 10 10 11 11 11 11 11 10 10 10 10 9 8 7 7 6 6 7 7 7 7 8 9 9 10 11 11 12 14 15 16 17 18 18 19 20 20 21 22 22 23 23 22
Wind_Direction
183 195 193 205 232 228 228 261 268 262 257 249 243 236 225 226 226 213 193 178 171 167 169 166 164 162 159 157 154 152 154 154 154 154 151 149 149 148 150 150 150 152 155 158 163 169 176 183 194 205 214 225 237 250 264 280 286 289 292 295 301 304 304 304 303 305 309 312 316 319 322 324 327 329 329 330 330 329 329 328 327 327 326 324 323
183 195 239 284 304 319 316 290 272 259 246 237 237 231 211 204 205 198 190 186 179 176 176 173 173 172 169 169 168 168 169 170 172 171 169 170 171 171 173 173 175 177 178 183 188 192 196 202 209 216 224 229 231 238 245 252 261 267 271 274 279 284 289 293 294 297 301 305 312 317 322 325 327 329 330 330 330 328 327 326 325 324 323 322 320
170 173 317 315 320 331 332 323 293 251 232 235 237 221 196 190 192 193 193 190 184 183 183 180 181 181 180 181 182 184 186 187 189 189 187 189 191 192 194 194 195 195 197 204 213 219 223 227 230 233 237 237 238 240 240 243 249 254 260 265 271 277 282 287 292 295 299 304 309 313 318 321 323 324 325 325 324 322 321 320 320 319 319 318 318
171 192 314 313 313 320 317 313 305 255 224 230 225 192 177 179 187 192 195 194 190 189 189 189 190 190 190 192 194 197 201 202 204 206 207 208 208 208 208 208 209 212 217 225 234 241 245 248 249 250 251 252 254 254 252 253 256 258 262 265 268 273 276 282 288 293 296 300 304 308 312 315 317 318 319 319 318 317 316 316 318 318 319 318 317
186 249 297 301 300 302 299 296 295 259 218 219 208 183 174 179 187 192 195 197 196 195 194 196 198 199 200 201 202 206 209 212 215 218 221 222 222 222 221 220 222 226 234 242 250 257 262 263 264 263 261 260 262 264 265 267 269 271 274 274 274 275 276 282 288 292 296 300 303 306 308 310 312 313 314 315 315 314 313 313 314 314 315 314 314
228 281 292 293 291 290 287 285 282 257 219 214 209 195 189 190 192 194 199 201 202 202 202 202 204 207 209 210 211 213 215 218 223 227 230 231 230 230 230 231 233 237 244 252 260 266 268 267 267 268 266 264 264 266 271 275 277 278 279 280 281 281 283 287 289 292 295 298 302 304 305 307 309 310 310 311 311 310 310 311 311 310 310 308 306
256 274 280 284 285 283 280 278 275 261 233 219 216 211 207 205 201 200 203 206 207 209 209 209 211 213 216 218 219 221 222 224 228 235 239 239 238 238 236 236 238 242 248 257 264 270 272 271 268 266 266 266 266 268 272 275 278 281 282 285 287 288 291 292 293 295 296 298 302 303 303 305 306 306 307 308 307 307 308 309 308 308 309 307 305
243 244 251 262 273 280 280 279 278 271 253 235 226 221 218 216 212 208 208 211 212 215 216 217 219 220 221 224 226 228 230 230 232 239 244 246 246 246 244 241 241 243 246 251 258 266 271 272 269 267 266 268 269 272 273 273 276 279 282 285 288 291 293 293 294 297 298 300 301 299 302 305 304 303 305 306 307 307 307 306 304 304 305 306 305
242 245 247 250 255 264 274 280 281 277 268 252 241 234 228 223 219 216 216 216 218 220 222 224 226 227 228 229 231 233 234 235 236 241 245 249 251 250 247 245 244 243 242 243 250 258 262 264 265 265 267 271 277 281 282 282 283 283 283 286 288 289 290 290 292 294 296 298 296 294 300 303 301 303 306 307 308 308 305 302 300 300 301 301 302
254 258 260 257 252 249 254 266 275 276 273 261 250 243 237 230 226 225 225 224 225 226 227 229 230 232 233 235 237 239 240 241 243 245 246 246 246 245 245 248 249 245 242 242 246 249 253 257 260 265 272 279 284 286 288 289 288 286 287 289 288 286 287 289 291 292 295 295 290 291 297 297 296 300 304 307 311 310 306 302 299 299 299 298 298
263 266 269 266 260 252 246 249 258 265 267 262 255 250 244 238 236 237 237 237 237 235 234 235 235 235 237 239 241 243 244 246 248 250 251 250 247 244 245 251 252 247 241 242 246 247 250 256 259 264 272 279 284 287 287 288 286 286 287 289 287 286 289 292 293 292 293 292 290 292 296 296 297 300 303 307 311 311 307 303 300 299 299 298 299
260 264 269 270 269 262 251 246 248 252 257 258 259 260 255 247 245 246 247 247 246 243 240 239 239 239 238 239 242 244 246 249 253 256 258 260 260 257 255 255 253 244 239 241 246 248 250 256 261 268 274 279 283 286 287 287 287 287 287 288 289 290 292 293 293 292 291 292 292 293 295 297 298 300 303 306 308 308 307 304 300 299 299 299 299
258 262 268 272 273 267 258 251 247 247 249 252 256 261 262 259 257 256 256 255 252 250 246 242 240 239 238 238 241 243 245 249 255 259 263 264 262 258 256 254 247 240 237 238 241 243 249 257 267 274 279 283 287 290 291 291 290 289 289 289 290 290 290 290 292 292 293 295 295 295 297 299 299 299 302 304 304 304 305 302 299 299 299 299 299
264 268 272 275 275 270 262 255 251 249 248 250 254 257 261 264 265 266 268 266 260 256 253 248 243 240 239 239 241 243 246 250 254 257 260 259 254 248 245 241 236 233 233 234 237 244 253 262 270 275 279 284 287 290 291 290 290 290 290 291 292 292 291 292 292 294 295 296 296 296 297 299 298 299 301 302 301 302 301 300 299 299 299 300 300
272 275 276 277 276 272 266 260 256 254 252 252 254 257 260 264 267 270 271 272 269 264 260 259 253 243 238 239 243 246 249 250 250 250 249 245 237 231 227 223 224 227 230 234 241 250 258 264 269 273 278 283 286 288 290 290 290 291 291 293 293 294 295 294 294 294 294 294 295 295 296 297 298 298 299 299 299 299 299 298 298 298 298 299 299
276 277 277 276 274 273 270 266 264 263 262 260 258 257 257 259 262 266 268 269 273 272 268 268 264 249 239 239 244 247 245 241 239 238 237 231 222 217 216 217 222 227 231 237 244 253 260 264 268 273 279 285 289 291 293 293 294 294 294 294 295 295 296 295 294 293 293 293 294 294 295 296 296 296 296 297 297 298 299 299 299 299 298 298 298
276 276 276 275 274 272 270 269 268 269 269 268 265 261 259 257 256 259 262 266 270 272 271 268 261 250 238 234 237 238 233 230 231 231 227 223 216 213 216 220 225 230 234 241 248 256 261 265 270 277 284 289 293 295 296 297 297 297 296 296 295 295 295 294 293 293 293 294 294 295 295 295 295 295 295 296 297 298 298 299 299 299 299 299 299
271 273 274 274 272 270 268 267 267 267 267 267 265 263 260 256 254 254 256 261 267 268 267 263 257 249 239 233 234 232 226 224 227 227 225 221 217 218 222 225 228 232 237 245 253 258 263 269 276 283 288 292 293 295 296 296 296 295 295 293 292 292 292 293 293 294 294 295 295 295 295 294 295 295 295 296 296 296 296 297 298 298 298 298 298
266 267 267 267 267 266 265 265 265 265 265 264 262 260 258 255 254 253 253 255 260 262 260 257 253 249 243 238 236 233 228 226 226 225 226 224 221 223 228 229 231 236 242 249 256 260 266 274 279 284 288 290 291 292 293 293 293 292 292 291 291 291 293 293 294 294 294 294 293 294 294 293 294 294 294 294 295 295 296 297 298 298 298 298 298
266 264 263 263 263 263 262 262 263 264 265 264 261 259 259 259 258 257 255 254 257 259 258 254 252 252 249 243 237 234 233 233 232 228 226 225 224 227 232 232 234 240 245 250 256 262 269 275 279 283 286 288 289 291 291 291 290 290 290 290 290 291 292 292 292 293 293 293 294 294 294 294 295 295 295 295 295 295 296 297 297 297 297 296 296
265 265 264 263 261 260 259 259 260 261 262 263 261 261 262 264 264 263 259 257 258 259 259 255 249 248 250 245 237 233 233 235 237 230 223 222 227 232 234 235 238 242 247 252 258 263 270 277 281 284 286 288 289 290 289 289 289 289 289 289 289 290 291 291 292 293 293 294 295 295 296 296 297 297 298 298 298 298 298 298 298 297 296 295 295
267 267 266 264 261 259 258 257 257 258 259 259 259 260 262 264 266 265 263 260 257 256 257 254 246 244 249 245 233 229 230 233 236 228 215 215 226 233 236 239 242 245 249 254 260 267 274 279 282 285 287 288 289 288 288 289 290 289 289 289 289 290 291 291 292 293 294 294 295 296 297 298 299 299 299 299 299 300 300 299 298 297 296 296 296
271 270 268 266 265 263 262 259 258 257 257 256 256 257 258 259 260 261 262 262 259 256 254 252 245 243 250 253 242 233 227 226 226 221 212 216 227 233 237 241 244 246 250 255 262 269 274 278 281 284 286 287 288 288 289 289 290 290 290 288 288 289 290 291 292 293 294 295 296 297 298 298 298 298 298 298 298 298 298 297 296 296 296 296 296
272 271 270 268 267 265 263 263 262 261 259 257 255 254 254 254 254 255 257 259 259 256 253 252 251 249 253 258 250 233 218 210 213 217 220 225 231 235 239 241 243 246 250 256 263 268 273 277 281 283 285 286 287 288 289 290 290 290 290 289 289 290 291 292 292 293 295 295 296 297 297 297 297 296 295 295 295 296 296 296 296 296 296 296 295
271 270 269 268 266 264 263 262 261 261 260 258 255 253 251 250 250 252 254 254 255 255 252 250 252 253 256 259 251 235 223 221 224 226 230 233 235 238 240 241 244 247 251 256 263 268 273 278 282 284 286 287 288 288 289 290 290 290 290 291 291 291 291 292 294 295 296 296 296 297 297 296 295 294 293 294 295 296 296 296 296 296 295 294 294
271 270 269 267 266 264 262 259 257 256 256 255 254 252 249 247 247 248 250 250 249 251 252 249 247 248 252 256 254 249 249 252 245 237 236 236 237 239 241 243 245 247 251 257 263 268 275 279 282 285 286 287 288 289 290 291 291 291 291 291 291 291 292 293 295 296 296 296 296 296 295 294 294 294 294 295 296 297 297 296 295 295 295 295 295
272 272 271 269 268 266 263 261 257 253 251 250 250 249 248 245 244 244 245 246 244 245 248 248 246 246 247 249 252 253 254 252 246 241 238 238 240 242 243 244 244 247 252 257 262 268 274 278 281 284 288 290 291 292 293 294 293 293 292 291 291 291 292 294 295 296 296 295 295 294 293 294 295 295 296 297 298 299 298 297 296 296 296 297 297
274 273 272 271 270 268 266 264 260 255 252 249 248 247 245 244 243 242 241 241 241 240 241 244 245 246 246 247 250 255 256 253 251 248 243 241 241 243 243 243 244 248 252 255 261 267 271 275 281 287 291 293 294 295 295 294 294 293 291 291 291 292 293 295 295 295 294 293 292 292 293 295 297 298 299 300 301 301 300 298 297 298 298 298 298
276 275 273 271 269 267 265 264 261 257 253 250 248 247 245 243 243 242 240 240 239 239 239 241 242 243 245 246 248 252 253 252 250 248 244 242 242 242 243 244 247 250 252 253 259 265 268 275 283 289 292 294 295 295 294 293 292 292 291 292 293 294 295 295 294 292 291 291 291 293 295 297 299 301 302 303 303 303 301 300 299 299 299 299 300
280 277 275 273 271 268 265 262 258 255 253 250 249 248 247 244 242 241 241 241 240 238 238 239 240 242 245 246 246 246 245 243 240 238 239 241 242 244 245 247 250 252 252 252 256 262 268 277 286 292 294 296 296 296 295 294 293 293 292 293 294 294 294 292 291 291 292 293 294 296 298 300 302 304 304 305 305 304 303 301 301 300 300 299 299
287 284 281 277 274 271 267 263 257 253 250 248 247 247 248 247 243 240 241 242 241 238 235 234 234 236 238 239 238 235 232 230 230 231 233 237 240 243 245 247 250 253 252 250 254 261 270 281 289 293 295 296 297 298 297 296 294 293 293 293 293 292 291 290 291 293 294 296 298 300 302 304 306 307 307 307 307 307 305 303 301 300 300 300 298
292 289 286 283 279 274 270 267 261 253 248 245 243 244 246 248 246 241 239 240 240 240 239 237 234 232 230 229 228 226 223 224 228 229 230 233 237 241 242 243 247 252 252 249 253 263 275 284 289 291 294 297 299 300 299 296 293 292 292 292 292 291 291 291 294 295 297 299 301 303 305 307 308 308 309 311 313 312 309 305 301 299 298 298 297
298 295 291 288 284 278 273 270 266 258 249 242 240 240 242 245 247 245 241 238 238 240 241 241 240 238 235 232 228 223 221 225 232 233 233 234 235 238 241 244 247 249 248 248 256 268 278 282 286 291 295 297 299 299 298 295 292 291 289 289 290 292 293 295 297 298 299 301 303 305 307 308 309 311 315 320 320 317 312 305 300 297 297 297 298
306 304 300 294 288 283 276 271 268 263 251 242 238 237 238 240 243 245 244 241 239 239 240 241 242 242 241 240 237 233 234 241 246 245 242 239 237 239 242 244 244 244 245 252 264 272 276 280 286 291 294 295 297 298 296 293 290 287 286 287 289 292 294 297 298 300 302 304 306 309 310 310 311 316 322 326 325 322 315 307 300 297 296 297 299
311 310 306 299 291 286 281 273 267 263 254 243 236 234 235 236 238 241 242 242 241 240 240 241 242 242 243 243 243 245 248 253 253 249 242 239 239 241 240 238 239 242 249 258 266 270 274 279 285 288 290 292 294 294 292 288 285 283 284 286 288 292 295 297 299 301 304 307 309 311 311 311 315 320 326 329 330 327 319 310 303 300 299 299 300
311 308 305 298 290 285 282 276 266 260 254 244 236 232 231 231 232 235 238 240 241 241 241 241 241 242 244 244 245 247 251 254 253 246 239 235 234 234 235 236 238 243 250 256 262 267 272 277 281 283 286 289 290 289 285 281 279 280 282 285 288 292 294 297 300 303 306 310 312 313 315 317 320 324 328 332 333 331 325 314 305 301 301 301 301
306 304 303 299 290 282 280 277 267 258 252 244 236 230 228 228 227 227 230 234 236 238 240 242 242 242 243 244 246 247 247 248 248 241 232 226 222 221 226 233 236 240 247 254 259 265 270 273 276 279 282 284 285 282 277 274 275 277 280 283 287 291 294 298 302 306 309 312 314 318 321 324 325 327 331 335 337 335 330 321 310 304 303 302 300
314 314 310 304 293 281 278 280 273 260 251 244 235 227 225 226 226 223 224 228 232 233 236 239 241 242 242 243 245 245 245 247 247 239 225 216 216 219 224 229 234 239 246 252 257 262 266 269 272 276 278 279 277 273 269 269 271 275 278 281 285 290 295 299 303 307 311 314 318 324 328 330 330 332 336 339 340 339 335 328 318 310 306 304 301
332 327 317 308 299 288 284 287 283 267 253 244 234 225 221 221 221 217 217 223 229 231 232 236 239 239 237 237 237 237 236 236 236 232 225 219 219 220 222 226 231 238 245 251 255 258 260 263 268 271 272 271 269 264 263 265 268 271 274 278 283 290 297 301 305 310 314 318 323 328 332 334 334 336 339 342 342 341 339 335 327 318 311 309 308
348 343 334 323 317 311 301 296 290 273 253 240 232 223 218 218 218 214 213 219 227 229 229 232 233 232 231 228 226 228 229 227 224 222 221 217 214 214 218 225 231 238 245 248 248 249 253 258 262 263 262 261 260 258 259 262 264 267 270 275 282 290 297 302 307 312 317 322 327 331 333 335 337 339 342 343 343 341 339 337 332 325 318 315 314
3 6 1 345 331 324 315 306 296 275 248 235 228 220 215 215 216 212 211 218 225 225 226 229 230 231 232 232 231 232 229 222 217 214 211 207 208 212 219 225 231 237 240 240 239 242 248 252 252 252 253 253 253 254 255 257 259 261 266 272 280 289 296 302 308 314 319 324 329 332 334 337 339 341 343 344 343 342 340 339 338 334 326 319 315
17 18 16 5 354 346 335 322 305 272 238 228 222 216 213 214 214 211 212 217 220 222 224 227 229 231 234 237 243 245 220 202 199 202 203 205 211 217 220 226 233 235 233 231 234 238 242 243 244 245 246 247 248 249 250 250 253 257 263 269 277 287 295 302 309 316 322 328 331 333 335 338 340 341 342 344 346 347 346 345 343 340 336 328 319
25 22 21 20 17 11 0 348 328 280 238 222 215 211 210 209 208 210 214 218 218 220 223 225 228 233 235 236 243 243 220 195 188 195 202 204 208 215 221 228 231 226 223 226 231 234 236 238 240 241 240 240 241 243 243 244 248 254 259 266 276 288 296 302 310 317 324 330 334 335 337 340 342 343 344 346 349 350 351 350 348 346 344 339 328
26 24 23 24 23 20 15 8 357 325 262 225 210 205 203 201 201 206 212 215 216 218 220 221 223 228 229 228 228 224 213 200 193 193 197 203 212 220 225 226 219 215 219 227 232 234 235 236 237 235 233 233 235 235 235 238 245 251 256 266 279 289 295 302 310 318 326 333 336 337 339 341 344 346 347 348 349 351 354 355 355 353 350 345 337
24 25 26 26 28 30 27 24 29 32 27 197 191 190 192 194 196 201 206 210 211 211 211 211 211 212 215 218 216 207 197 193 193 194 200 210 218 221 222 217 211 214 222 230 234 235 235 234 232 229 227 228 228 228 230 237 243 248 255 267 279 286 292 300 309 318 328 335 338 340 342 345 348 350 349 348 349 353 357 357 356 355 354 350 345
25 28 29 29 33 40 41 42 51 66 84 111 138 160 173 182 190 198 202 203 205 206 206 205 206 207 209 211 209 202 195 193 196 201 206 213 218 220 219 214 214 221 230 234 234 232 230 229 227 224 223 223 223 225 230 236 240 245 255 267 275 282 290 299 309 320 332 339 341 343 347 350 352 352 351 350 352 355 357 358 357 356 356 354 350
29 33 36 36 39 49 58 63 71 83 95 106 120 137 154 166 178 188 192 194 197 201 200 198 200 203 203 200 196 193 189 192 198 204 209 212 213 215 217 218 222 227 228 227 227 226 224 222 221 219 218 220 222 225 232 237 238 243 252 261 270 280 290 298 310 323 334 339 342 346 351 355 356 354 353 354 355 356 357 358 358 357 357 356 353
30 35 39 42 46 55 68 78 87 96 104 112 121 132 146 158 167 174 180 184 188 190 190 191 193 192 189 185 182 178 177 185 194 199 203 205 209 215 219 220 220 219 218 218 220 218 215 215 215 214 216 219 222 228 235 237 236 240 247 255 266 279 288 298 311 324 332 337 342 347 352 356 358 358 358 358 357 357 358 359 358 358 358 357 355
33 36 39 45 53 63 74 84 95 103 109 113 118 123 133 144 157 173 182 184 185 185 186 188 188 186 182 180 176 171 174 184 191 196 202 209 214 216 215 211 206 205 206 207 207 206 207 210 212 212 213 218 224 230 234 235 235 240 247 255 267 277 286 299 312 321 328 335 340 345 350 355 359 1 1 1 0 360 359 359 359 359 358 357 356
39 41 45 51 60 69 78 86 95 102 108 112 115 116 118 115 114 141 168 175 178 180 178 175 174 175 178 180 180 180 185 190 194 198 205 210 210 206 202 198 195 195 196 196 197 200 204 207 207 209 212 217 222 227 230 234 240 248 256 266 276 285 293 304 312 318 325 333 338 343 349 354 358 0 2 3 3 3 0 359 359 0 359 357 356
46 48 52 58 64 72 79 86 93 98 104 110 113 115 116 110 102 109 129 141 147 150 150 151 156 165 172 176 178 181 187 195 202 207 207 200 193 192 192 190 187 188 190 193 197 200 202 204 206 208 211 214 218 222 228 237 247 257 268 278 286 293 301 307 311 316 323 329 335 341 346 349 353 357 1 4 4 4 2 0 360 1 2 0 357
Height
3131 3131 3131 3130 3130 3130 3130 3129 3128 3128 3129 3129 3129 3130 3130 3132 3134 3136 3138 3138 3138 3139 3139 3140 3140 3141 3141 3141 3142 3142 3143 3143 3144 3144 3145 3145 3145 3146 3146 3147 3147 3147 3148 3148 3149 3149 3149 3149 3150 3150 3150 3150 3150 3151 3151 3151 3151 3152 3152 3153 3153 3153 3154 3153 3153 3153 3153 3152 3152 3152 3151 3151 3150 3149 3149 3148 3147 3147 3146 3145 3144 3143 3143 3142 3142
3130 3130 3130 3129 3129 3128 3128 3127 3127 3127 3127 3127 3128 3128 3128 3131 3134 3136 3137 3137 3138 3138 3139 3140 3140 3141 3141 3141 3142 3142 3143 3143 3144 3144 3144 3145 3145 3146 3146 3146 3146 3147 3147 3147 3148 3148 3149 3149 3149 3149 3150 3150 3150 3150 3150 3151 3151 3151 3151 3152 3152 3153 3153 3152 3152 3152 3152 3151 3151 3151 3150 3149 3149 3148 3147 3147 3146 3145 3144 3143 3143 3142 3141 3140 3140
3128 3128 3128 3128 3127 3127 3126 3126 3126 3125 3125 3126 3126 3126 3127 3130 3133 3135 3136 3137 3137 3138 3138 3139 3139 3140 3141 3141 3141 3142 3143 3143 3143 3144 3144 3144 3145 3145 3145 3145 3146 3146 3146 3147 3147 3147 3148 3148 3148 3148 3149 3149 3149 3150 3150 3150 3150 3150 3150 3151 3151 3151 3151 3151 3151 3150 3150 3150 3150 3149 3149 3148 3148 3147 3146 3145 3145 3144 3142 3142 3141 3140 3139 3138 3137
3127 3127 3127 3126 3126 3126 3126 3126 3125 3125 3125 3126 3126 3125 3126 3129 3132 3134 3135 3136 3136 3137 3138 3138 3139 3139 3140 3140 3141 3141 3142 3142 3143 3143 3144 3144 3144 3144 3145 3145 3145 3146 3146 3146 3146 3146 3147 3147 3147 3147 3148 3148 3148 3148 3149 3149 3149 3149 3149 3149 3149 3150 3150 3149 3149 3149 3148 3148 3148 3148 3147 3147 3146 3145 3145 3144 3143 3142 3141 3140 3139 3138 3137 3136 3135
3126 3126 3126 3125 3125 3125 3126 3126 3125 3125 3125 3126 3126 3126 3127 3129 3131 3133 3134 3135 3136 3136 3136 3137 3138 3139 3139 3140 3140 3141 3141 3141 3142 3142 3143 3143 3143 3144 3144 3144 3145 3145 3145 3145 3145 3145 3146 3146 3146 3146 3146 3146 3146 3147 3147 3147 3148 3148 3148 3148 3148 3148 3148 3148 3147 3147 3146 3146 3146 3146 3145 3144 3144 3143 3143 3142 3141 3140 3139 3138 3137 3136 3135 3133 3132
3124 3125 3124 3124 3124 3125 3125 3125 3125 3125 3125 3125 3126 3126 3127 3128 3130 3131 3133 3134 3134 3135 3135 3136 3137 3137 3138 3138 3139 3139 3140 3140 3140 3140 3141 3142 3142 3142 3143 3143 3144 3144 3144 3144 3144 3144 3144 3144 3144 3144 3144 3144 3145 3145 3145 3145 3146 3146 3146 3146 3146 3146 3146 3146 3146 3145 3144 3144 3143 3143 3142 3142 3141 3140 3140 3139 3138 3137 3136 3135 3134 3133 3132 3131 3130
3122 3123 3123 3123 3123 3123 3124 3124 3123 3124 3124 3125 3125 3125 3126 3127 3128 3129 3131 3132 3132 3133 3134 3134 3134 3135 3136 3137 3137 3138 3138 3139 3139 3139 3140 3140 3141 3141 3142 3142 3142 3142 3142 3143 3143 3142 3143 3143 3143 3143 3143 3142 3143 3143 3143 3143 3144 3144 3144 3144 3144 3143 3144 3144 3143 3143 3142 3141 3141 3140 3139 3138 3138 3137 3137 3136 3135 3134 3133 3132 3131 3129 3128 3128 3126
3120 3121 3121 3121 3122 3122 3122 3122 3122 3123 3123 3123 3123 3124 3125 3126 3126 3127 3128 3129 3130 3131 3131 3132 3132 3132 3133 3134 3135 3136 3136 3137 3137 3137 3137 3138 3139 3139 3140 3140 3140 3140 3141 3141 3141 3141 3141 3141 3141 3141 3141 3141 3141 3141 3142 3142 3142 3142 3142 3142 3142 3141 3141 3141 3141 3141 3140 3140 3139 3138 3136 3135 3134 3134 3134 3134 3133 3131 3130 3129 3128 3126 3125 3124 3122
3118 3119 3120 3120 3120 3120 3121 3121 3121 3121 3121 3121 3121 3122 3123 3123 3124 3125 3126 3127 3127 3128 3128 3129 3129 3129 3130 3131 3132 3133 3134 3134 3135 3135 3135 3136 3136 3136 3137 3138 3138 3138 3138 3138 3139 3139 3139 3139 3139 3139 3139 3139 3139 3140 3140 3140 3140 3141 3140 3140 3140 3139 3139 3139 3138 3138 3138 3137 3137 3135 3134 3133 3132 3130 3130 3131 3130 3129 3127 3126 3125 3124 3123 3122 3120
3116 3117 3117 3118 3118 3119 3119 3119 3119 3119 3120 3119 3119 3120 3120 3121 3122 3123 3123 3123 3124 3124 3125 3126 3126 3126 3127 3128 3129 3130 3131 3132 3132 3133 3133 3132 3132 3133 3134 3135 3135 3136 3136 3136 3136 3137 3137 3137 3137 3137 3137 3137 3137 3137 3138 3138 3138 3138 3138 3137 3137 3137 3136 3136 3136 3135 3135 3134 3133 3132 3131 3130 3129 3127 3126 3126 3126 3125 3124 3122 3121 3120 3119 3118 3118
3113 3114 3115 3115 3116 3116 3117 3117 3117 3117 3117 3117 3117 3118 3118 3119 3120 3120 3121 3121 3121 3121 3122 3123 3123 3123 3124 3124 3125 3126 3127 3128 3129 3129 3129 3129 3129 3130 3130 3131 3132 3133 3133 3134 3134 3134 3135 3135 3135 3135 3135 3135 3135 3135 3135 3135 3135 3135 3135 3135 3134 3134 3134 3133 3133 3132 3132 3131 3130 3128 3127 3126 3125 3124 3122 3121 3121 3121 3120 3119 3117 3116 3115 3114 3114
3111 3112 3112 3113 3113 3114 3114 3115 3115 3115 3115 3115 3115 3115 3116 3117 3117 3117 3118 3118 3118 3118 3119 3119 3120 3120 3120 3120 3121 3122 3123 3124 3125 3125 3125 3126 3127 3127 3127 3128 3129 3129 3130 3130 3131 3132 3132 3132 3132 3132 3133 3133 3133 3133 3133 3133 3133 3133 3132 3132 3131 3131 3131 3131 3130 3129 3129 3128 3127 3125 3124 3123 3121 3119 3119 3118 3117 3116 3116 3115 3113 3112 3111 3110 3109
3109 3109 3110 3110 3111 3111 3111 3112 3112 3112 3112 3112 3112 3112 3113 3114 3114 3114 3115 3115 3114 3114 3114 3115 3115 3115 3116 3116 3116 3117 3119 3121 3122 3121 3121 3121 3121 3122 3122 3124 3125 3125 3127 3128 3128 3129 3130 3130 3130 3130 3130 3130 3130 3130 3130 3130 3130 3130 3129 3129 3128 3128 3128 3127 3127 3126 3125 3124 3123 3121 3120 3119 3117 3115 3115 3115 3113 3112 3111 3110 3108 3107 3106 3105 3104
3106 3106 3107 3108 3108 3108 3108 3109 3109 3109 3109 3109 3109 3109 3109 3110 3111 3111 3111 3111 3110 3110 3110 3109 3109 3110 3111 3112 3112 3113 3115 3117 3118 3118 3117 3116 3116 3116 3118 3120 3121 3123 3124 3125 3126 3127 3127 3127 3127 3127 3127 3128 3128 3127 3127 3127 3127 3127 3126 3125 3125 3124 3124 3124 3123 3122 3121 3120 3119 3117 3115 3115 3114 3112 3111 3110 3109 3108 3107 3106 3104 3102 3101 3100 3098
3103 3103 3104 3104 3105 3106 3106 3106 3106 3106 3106 3106 3106 3106 3106 3106 3106 3106 3106 3106 3106 3106 3106 3105 3104 3104 3106 3107 3108 3109 3111 3113 3114 3113 3113 3112 3112 3114 3116 3117 3119 3120 3122 3123 3123 3124 3124 3124 3124 3125 3125 3125 3125 3125 3124 3124 3124 3123 3123 3122 3122 3121 3121 3120 3119 3118 3117 3116 3115 3113 3112 3111 3110 3108 3107 3106 3104 3103 3102 3101 3099 3097 3096 3095 3093
3099 3100 3100 3101 3102 3102 3102 3103 3103 3103 3103 3103 3103 3103 3103 3103 3102 3102 3102 3102 3102 3102 3103 3102 3101 3101 3102 3103 3104 3105 3106 3108 3109 3109 3109 3110 3110 3112 3113 3115 3116 3117 3119 3120 3121 3121 3121 3122 3122 3122 3122 3122 3121 3121 3121 3120 3120 3119 3119 3118 3118 3117 3117 3116 3115 3114 3113 3112 3111 3109 3108 3107 3106 3104 3103 3102 3100 3098 3097 3095 3094 3092 3090 3089 3088
3096 3096 3097 3097 3098 3098 3099 3099 3099 3099 3099 3099 3100 3100 3099 3099 3099 3098 3098 3098 3098 3099 3099 3099 3099 3099 3099 3100 3100 3099 3100 3103 3105 3105 3106 3107 3108 3109 3111 3112 3113 3114 3116 3117 3117 3117 3118 3118 3118 3119 3118 3118 3118 3118 3117 3117 3116 3116 3115 3114 3114 3113 3113 3112 3111 3110 3109 3107 3106 3105 3103 3102 3101 3100 3098 3097 3096 3094 3092 3090 3088 3087 3084 3083 3082
3093 3093 3093 3093 3094 3094 3094 3095 3095 3095 3095 3095 3095 3095 3095 3095 3095 3095 3094 3095 3095 3096 3096 3096 3097 3097 3097 3097 3097 3096 3097 3099 3101 3103 3104 3105 3106 3107 3108 3109 3110 3112 3112 3113 3114 3114 3115 3115 3115 3115 3115 3115 3115 3114 3114 3114 3113 3112 3112 3111 3110 3110 3109 3108 3107 3105 3104 3103 3101 3100 3099 3097 3096 3095 3093 3092 3091 3090 3088 3086 3084 3082 3080 3078 3076
3089 3089 3089 3089 3089 3090 3090 3090 3090 3090 3091 3091 3091 3091 3091 3091 3091 3091 3091 3091 3091 3092 3092 3093 3093 3094 3094 3095 3094 3094 3096 3097 3098 3100 3101 3103 3104 3105 3105 3106 3108 3109 3109 3110 3111 3111 3111 3112 3112 3112 3112 3112 3112 3111 3111 3111 3110 3110 3109 3108 3106 3106 3105 3104 3102 3101 3100 3099 3097 3096 3095 3093 3092 3090 3088 3087 3086 3085 3083 3082 3080 3077 3075 3073 3071
3084 3084 3084 3085 3085 3085 3085 3086 3086 3086 3086 3087 3087 3087 3087 3087 3087 3087 3087 3087 3087 3088 3089 3089 3089 3089 3090 3091 3091 3091 3093 3094 3095 3096 3098 3100 3102 3103 3103 3104 3105 3105 3106 3107 3107 3108 3108 3109 3109 3109 3109 3109 3108 3108 3108 3107 3107 3106 3105 3104 3103 3102 3101 3100 3098 3097 3096 3094 3093 3091 3090 3088 3086 3085 3083 3081 3080 3079 3078 3076 3074 3072 3070 3068 3066
3078 3079 3079 3080 3080 3080 3081 3081 3081 3082 3082 3082 3083 3083 3083 3083 3083 3083 3083 3083 3083 3084 3085 3085 3085 3084 3085 3086 3086 3087 3089 3090 3090 3090 3093 3096 3098 3100 3100 3101 3102 3102 3103 3103 3104 3105 3105 3105 3106 3106 3105 3105 3105 3105 3104 3104 3103 3103 3102 3101 3099 3098 3097 3095 3094 3093 3091 3090 3088 3086 3084 3083 3081 3079 3077 3075 3073 3072 3070 3069 3067 3066 3064 3062 3060
3073 3074 3074 3075 3075 3075 3076 3076 3076 3077 3077 3078 3078 3079 3079 3079 3079 3079 3079 3079 3079 3080 3081 3081 3080 3080 3080 3081 3082 3083 3083 3084 3084 3085 3087 3091 3094 3096 3097 3098 3098 3099 3100 3100 3100 3101 3102 3102 3102 3102 3102 3102 3101 3101 3101 3100 3100 3099 3098 3097 3095 3094 3093 3091 3090 3088 3087 3085 3084 3082 3080 3078 3076 3074 3072 3070 3068 3066 3064 3062 3061 3059 3058 3056 3054
3068 3068 3069 3069 3070 3070 3070 3071 3071 3072 3072 3073 3073 3074 3074 3075 3075 3075 3075 3075 3075 3075 3076 3077 3077 3076 3076 3077 3078 3078 3078 3079 3080 3082 3084 3087 3090 3092 3093 3094 3095 3096 3096 3097 3097 3098 3098 3098 3098 3098 3098 3098 3098 3097 3097 3096 3096 3095 3094 3093 3091 3090 3089 3087 3085 3084 3082 3081 3079 3077 3076 3074 3072 3070 3067 3065 3063 3061 3060 3058 3056 3054 3053 3051 3049
3061 3062 3062 3063 3063 3064 3064 3065 3065 3066 3067 3067 3068 3069 3069 3070 3070 3071 3071 3071 3071 3071 3072 3072 3073 3073 3073 3073 3073 3074 3075 3075 3077 3079 3082 3084 3086 3088 3089 3090 3091 3092 3093 3093 3094 3095 3095 3095 3095 3095 3095 3094 3094 3094 3093 3092 3092 3091 3090 3088 3087 3086 3084 3082 3081 3079 3078 3076 3074 3073 3071 3069 3067 3065 3063 3061 3060 3058 3056 3054 3052 3050 3048 3046 3045
3054 3054 3055 3056 3057 3057 3058 3058 3058 3059 3060 3061 3062 3063 3064 3065 3065 3066 3067 3067 3068 3068 3068 3068 3069 3069 3070 3071 3071 3072 3073 3074 3076 3078 3080 3082 3083 3084 3085 3087 3087 3088 3089 3090 3090 3091 3091 3091 3091 3091 3091 3090 3090 3089 3089 3088 3087 3086 3085 3084 3082 3081 3080 3078 3076 3075 3073 3071 3069 3068 3066 3064 3062 3061 3059 3057 3056 3054 3052 3049 3047 3045 3043 3041 3039
3046 3046 3047 3047 3048 3049 3049 3050 3051 3052 3052 3053 3054 3056 3057 3059 3060 3060 3061 3063 3063 3064 3064 3065 3065 3066 3066 3067 3068 3069 3070 3071 3073 3075 3077 3078 3079 3080 3081 3082 3083 3084 3085 3086 3086 3087 3087 3088 3088 3087 3087 3086 3086 3085 3084 3084 3083 3082 3081 3079 3078 3076 3075 3074 3072 3070 3069 3067 3065 3063 3061 3060 3058 3057 3055 3053 3052 3050 3047 3045 3042 3040 3038 3036 3033
3038 3038 3038 3038 3039 3039 3040 3041 3042 3043 3044 3046 3047 3048 3050 3051 3053 3054 3055 3057 3058 3060 3060 3060 3061 3062 3062 3063 3065 3066 3067 3068 3069 3070 3072 3074 3075 3076 3077 3078 3079 3080 3081 3082 3082 3083 3084 3084 3084 3084 3083 3083 3082 3081 3080 3079 3078 3077 3076 3075 3073 3072 3071 3069 3068 3066 3064 3063 3061 3059 3058 3056 3055 3053 3051 3049 3047 3045 3042 3039 3037 3034 3032 3030 3028
3031 3030 3030 3030 3030 3030 3030 3031 3033 3034 3036 3037 3039 3040 3042 3043 3045 3047 3049 3050 3052 3054 3055 3056 3057 3058 3058 3059 3061 3063 3064 3065 3066 3067 3069 3070 3071 3072 3073 3073 3074 3076 3077 3078 3079 3080 3080 3081 3081 3080 3079 3079 3078 3077 3076 3075 3074 3073 3072 3070 3069 3068 3066 3065 3063 3062 3060 3059 3057 3056 3055 3053 3051 3049 3047 3045 3043 3040 3037 3034 3031 3029 3027 3025 3023
3023 3022 3022 3021 3021 3021 3021 3022 3023 3025 3026 3028 3030 3031 3032 3035 3038 3040 3041 3043 3045 3047 3049 3051 3052 3052 3053 3054 3057 3059 3060 3061 3063 3064 3065 3066 3066 3067 3068 3069 3071 3072 3073 3074 3075 3076 3077 3077 3077 3076 3076 3075 3074 3073 3073 3071 3070 3069 3067 3066 3065 3063 3062 3061 3059 3058 3057 3055 3054 3053 3051 3050 3048 3046 3044 3041 3039 3036 3033 3029 3027 3024 3022 3020 3018
3015 3015 3014 3013 3012 3012 3012 3013 3014 3015 3017 3019 3021 3022 3023 3026 3030 3032 3034 3036 3039 3042 3043 3044 3046 3047 3049 3050 3052 3054 3055 3057 3058 3059 3060 3061 3062 3063 3064 3065 3067 3068 3069 3070 3071 3072 3073 3073 3073 3072 3072 3071 3071 3070 3068 3067 3066 3064 3063 3062 3061 3059 3058 3057 3056 3055 3054 3052 3051 3050 3048 3046 3044 3042 3040 3037 3035 3032 3028 3025 3022 3020 3018 3016 3014
3008 3008 3007 3006 3005 3004 3004 3004 3004 3006 3008 3011 3013 3014 3015 3017 3021 3024 3026 3029 3032 3035 3036 3038 3040 3042 3043 3044 3047 3048 3050 3051 3052 3053 3054 3055 3057 3058 3060 3061 3063 3064 3065 3066 3068 3069 3069 3070 3069 3069 3068 3068 3067 3066 3064 3063 3062 3060 3059 3058 3057 3056 3055 3054 3053 3052 3051 3049 3048 3046 3044 3043 3041 3038 3036 3033 3030 3028 3024 3021 3018 3016 3014 3013 3011
3003 3001 3000 2999 2998 2998 2997 2996 2995 2996 2999 3002 3005 3007 3008 3010 3012 3016 3019 3022 3025 3028 3030 3033 3035 3036 3036 3038 3040 3042 3044 3045 3046 3047 3048 3050 3052 3054 3056 3057 3058 3060 3062 3063 3064 3065 3066 3066 3066 3065 3065 3064 3063 3061 3060 3059 3058 3057 3056 3055 3054 3053 3052 3051 3050 3049 3048 3047 3045 3043 3041 3039 3037 3035 3033 3030 3026 3023 3020 3017 3015 3013 3012 3010 3009
2998 2996 2994 2993 2992 2991 2990 2990 2989 2989 2990 2993 2996 3000 3002 3004 3006 3009 3012 3015 3018 3021 3024 3027 3029 3031 3032 3034 3036 3037 3039 3041 3042 3043 3044 3046 3048 3049 3050 3052 3054 3057 3059 3060 3061 3062 3062 3062 3062 3061 3061 3060 3058 3057 3056 3056 3055 3054 3053 3053 3052 3051 3050 3049 3048 3046 3045 3044 3042 3041 3039 3037 3035 3032 3029 3026 3023 3019 3017 3014 3012 3011 3009 3008 3007
2994 2992 2989 2987 2986 2984 2984 2984 2983 2982 2983 2985 2989 2993 2996 2999 3001 3003 3006 3009 3011 3014 3017 3021 3023 3026 3028 3030 3032 3033 3035 3037 3039 3041 3042 3043 3044 3045 3046 3049 3051 3054 3055 3056 3057 3058 3058 3058 3058 3057 3057 3055 3054 3053 3053 3053 3052 3052 3051 3050 3050 3049 3048 3047 3045 3044 3043 3041 3040 3038 3036 3034 3032 3029 3026 3023 3019 3016 3014 3011 3010 3009 3007 3006 3005
2989 2987 2985 2983 2981 2979 2978 2978 2977 2977 2977 2979 2982 2986 2990 2994 2996 2998 3001 3003 3006 3009 3012 3014 3017 3020 3022 3025 3028 3029 3031 3033 3035 3037 3038 3039 3041 3042 3044 3046 3048 3049 3051 3052 3053 3054 3055 3054 3054 3053 3052 3051 3051 3050 3050 3050 3050 3050 3049 3048 3048 3047 3046 3045 3044 3042 3041 3039 3038 3036 3034 3032 3029 3026 3023 3020 3017 3014 3011 3009 3008 3006 3005 3003 3002
2985 2983 2980 2978 2976 2975 2974 2973 2973 2972 2973 2974 2976 2981 2985 2988 2991 2994 2996 2999 3001 3003 3006 3008 3011 3014 3017 3020 3023 3025 3027 3029 3031 3033 3034 3036 3037 3039 3041 3043 3044 3046 3047 3049 3050 3051 3051 3050 3050 3049 3049 3048 3048 3048 3048 3048 3048 3048 3047 3046 3046 3045 3044 3043 3042 3040 3039 3037 3036 3034 3032 3029 3026 3023 3020 3017 3014 3011 3009 3007 3006 3004 3003 3001 3000
2982 2979 2976 2974 2971 2970 2969 2969 2968 2968 2968 2969 2971 2975 2979 2983 2986 2990 2992 2995 2997 2999 3001 3004 3007 3009 3012 3014 3017 3020 3023 3025 3028 3029 3031 3033 3034 3035 3037 3039 3041 3043 3044 3045 3046 3047 3046 3046 3046 3045 3045 3045 3045 3045 3045 3046 3046 3046 3045 3044 3044 3043 3042 3041 3040 3038 3037 3036 3034 3032 3029 3026 3023 3021 3018 3015 3012 3009 3007 3005 3003 3002 3000 2999 2997
2979 2975 2972 2969 2967 2966 2965 2965 2965 2965 2965 2965 2967 2970 2975 2979 2982 2986 2989 2991 2994 2996 2998 3000 3002 3005 3007 3010 3012 3015 3018 3021 3023 3025 3027 3029 3030 3031 3033 3036 3038 3040 3041 3041 3042 3042 3042 3042 3042 3042 3042 3042 3042 3043 3043 3044 3044 3043 3043 3043 3042 3041 3040 3039 3038 3037 3036 3034 3032 3029 3027 3024 3021 3019 3016 3013 3010 3008 3005 3003 3001 2999 2998 2997 2995
2975 2972 2969 2966 2964 2963 2963 2963 2963 2962 2962 2963 2964 2967 2971 2975 2978 2982 2985 2988 2990 2992 2995 2997 2999 3002 3004 3006 3008 3011 3013 3016 3018 3020 3022 3024 3026 3028 3031 3033 3035 3036 3037 3037 3038 3038 3038 3038 3039 3039 3039 3040 3040 3040 3041 3041 3042 3041 3041 3041 3040 3040 3039 3038 3036 3035 3034 3032 3030 3027 3024 3022 3020 3017 3014 3011 3008 3006 3003 3001 2999 2997 2996 2995 2993
2973 2969 2966 2964 2963 2962 2962 2961 2961 2960 2960 2961 2962 2964 2968 2971 2975 2979 2982 2985 2987 2989 2992 2995 2997 2999 3002 3003 3005 3007 3009 3013 3016 3017 3018 3019 3022 3025 3028 3030 3031 3032 3033 3034 3034 3034 3035 3035 3036 3036 3037 3037 3038 3038 3039 3039 3039 3040 3039 3039 3039 3038 3037 3036 3035 3034 3032 3030 3028 3025 3023 3020 3018 3015 3012 3009 3007 3004 3002 3000 2998 2996 2994 2993 2991
2972 2968 2966 2964 2963 2962 2961 2960 2959 2959 2959 2959 2961 2963 2966 2969 2973 2977 2980 2983 2985 2987 2989 2992 2994 2997 3000 3001 3002 3004 3005 3008 3013 3015 3016 3017 3020 3023 3025 3027 3028 3029 3030 3030 3031 3031 3032 3033 3033 3034 3034 3035 3036 3036 3037 3037 3038 3038 3037 3037 3037 3036 3036 3035 3034 3032 3031 3029 3027 3024 3022 3019 3016 3014 3011 3009 3006 3004 3001 2999 2996 2994 2992 2991 2989
2971 2969 2966 2965 2963 2962 2961 2960 2959 2958 2958 2959 2960 2962 2964 2968 2971 2975 2978 2980 2982 2984 2987 2989 2992 2995 2997 2998 3000 3002 3002 3005 3009 3012 3014 3016 3019 3021 3023 3024 3025 3026 3026 3027 3028 3029 3029 3030 3031 3031 3032 3033 3033 3034 3035 3035 3036 3036 3036 3036 3035 3035 3034 3033 3032 3031 3029 3028 3025 3023 3021 3018 3016 3013 3011 3008 3005 3003 3000 2998 2995 2993 2991 2989 2987
2972 2970 2968 2965 2963 2962 2961 2960 2959 2959 2959 2959 2960 2961 2963 2967 2971 2974 2976 2979 2981 2983 2985 2988 2991 2994 2995 2997 2999 3000 3002 3004 3007 3010 3012 3015 3017 3019 3020 3021 3022 3023 3024 3025 3026 3026 3027 3028 3028 3029 3030 3031 3032 3032 3033 3033 3034 3034 3034 3034 3034 3033 3033 3032 3031 3030 3028 3026 3025 3022 3020 3018 3015 3012 3010 3007 3005 3002 2999 2997 2994 2992 2990 2988 2986
2973 2971 2969 2967 2964 2963 2962 2961 2960 2959 2959 2959 2960 2961 2963 2966 2970 2973 2975 2977 2979 2982 2985 2988 2990 2992 2994 2996 2998 3000 3001 3003 3005 3008 3011 3013 3016 3017 3017 3018 3019 3020 3021 3023 3024 3024 3025 3025 3026 3027 3028 3029 3030 3031 3031 3032 3032 3032 3033 3032 3032 3032 3031 3030 3030 3028 3027 3026 3024 3022 3019 3017 3015 3012 3009 3007 3004 3002 2999 2996 2993 2991 2989 2987 2985
2975 2972 2970 2968 2966 2964 2963 2962 2961 2960 2960 2960 2961 2962 2964 2967 2970 2972 2974 2976 2979 2982 2984 2987 2989 2991 2993 2995 2997 2999 3000 3002 3005 3007 3010 3012 3013 3014 3015 3016 3017 3018 3019 3021 3021 3022 3023 3023 3024 3025 3026 3027 3028 3029 3029 3030 3030 3031 3031 3031 3031 3030 3030 3029 3028 3027 3026 3025 3023 3021 3019 3016 3014 3011 3009 3007 3004 3001 2998 2995 2993 2990 2988 2986 2984
2976 2974 2972 2970 2968 2966 2965 2964 2963 2962 2962 2962 2963 2964 2966 2968 2970 2972 2974 2976 2979 2981 2984 2986 2988 2990 2992 2994 2996 2998 2999 3001 3004 3006 3008 3010 3011 3012 3013 3014 3015 3016 3017 3019 3019 3020 3021 3022 3023 3024 3025 3026 3027 3027 3028 3029 3029 3029 3029 3029 3029 3029 3028 3028 3027 3026 3025 3023 3022 3020 3018 3016 3013 3011 3009 3006 3003 3001 2998 2995 2992 2990 2988 2985 2983
2978 2976 2974 2972 2970 2969 2967 2966 2965 2965 2964 2964 2965 2966 2968 2969 2971 2973 2974 2976 2979 2981 2983 2985 2988 2989 2991 2993 2995 2997 2999 3000 3003 3005 3007 3008 3010 3011 3012 3013 3014 3015 3016 3017 3018 3019 3020 3021 3022 3023 3024 3025 3025 3026 3027 3027 3028 3028 3028 3028 3028 3027 3027 3026 3026 3025 3023 3022 3021 3019 3017 3015 3013 3011 3008 3006 3003 3000 2998 2995 2992 2990 2987 2985 2982
2980 2977 2976 2974 2972 2971 2970 2969 2968 2968 2968 2968 2968 2969 2970 2971 2972 2973 2975 2976 2978 2981 2983 2985 2987 2988 2990 2993 2995 2997 2998 3000 3002 3004 3005 3007 3008 3009 3010 3011 3012 3013 3014 3015 3017 3018 3019 3020 3021 3022 3023 3023 3024 3025 3025 3026 3026 3027 3027 3027 3026 3026 3025 3025 3024 3023 3022 3021 3019 3018 3016 3014 3012 3010 3008 3005 3003 3000 2997 2995 2992 2990 2987 2984 2982
2982 2980 2978 2976 2975 2974 2973 2972 2971 2971 2971 2971 2972 2972 2972 2973 2974 2974 2975 2977 2978 2980 2982 2984 2987 2989 2991 2993 2995 2997 2998 3000 3002 3003 3004 3006 3007 3008 3009 3010 3011 3012 3013 3015 3016 3017 3018 3019 3020 3021 3022 3022 3023 3024 3024 3025 3025 3025 3025 3025 3025 3025 3024 3023 3023 3022 3021 3020 3018 3017 3015 3013 3011 3009 3007 3005 3002 3000 2997 2995 2992 2989 2987 2984 2982
2985 2983 2981 2979 2978 2977 2976 2975 2975 2974 2974 2974 2975 2975 2975 2975 2975 2975 2976 2977 2979 2981 2983 2985 2987 2990 2992 2994 2995 2996 2998 3000 3001 3002 3004 3005 3005 3006 3008 3009 3010 3012 3013 3014 3015 3016 3017 3018 3019 3020 3021 3021 3022 3022 3023 3023 3023 3024 3024 3024 3023 3023 3022 3022 3021 3020 3019 3018 3017 3015 3014 3012 3010 3009 3007 3005 3002 3000 2997 2995 2992 2990 2987 2984 2982
2988 2986 2984 2983 2981 2980 2979 2978 2978 2978 2977 2977 2977 2977 2978 2978 2978 2977 2978 2979 2981 2982 2984 2986 2988 2990 2992 2994 2995 2996 2998 2999 3001 3002 3003 3004 3005 3006 3007 3009 3010 3011 3012 3013 3015 3016 3016 3017 3018 3019 3019 3020 3021 3021 3022 3022 3022 3022 3022 3022 3022 3021 3021 3020 3019 3019 3018 3017 3015 3014 3012 3011 3009 3008 3006 3004 3002 3000 2998 2995 2993 2990 2987 2985 2982